Home   Weather   Barysaw   Past weeks

Flag for Belarus Past Weather in Barysaw, Belarus — Yesterday and Last 2 Weeks

Now
43 °F

Partly sunny.


Feels Like: 41 °F
Forecast: 36 / 43 °F
Wind: 3 mph from North

Location: Minsk

Current Time: Apr 30, 2017 at 12:17:19 pm

Latest Report: Apr 30, 2017 at 11:30 am


Visibility: N/A

Pressure: 30.12 "Hg

Humidity: 76%

Dew Point: 36 °F

Location of BarysawLocation

Past Weather in Barysaw — Graph

°F

Barysaw Temperature Yesterday

Maximum temperature yesterday: 63 °F (at 10:30 am)
Minimum temperature yesterday: 43 °F (at 12:00 am)
Average temperature yesterday: 49 °F

High & Low Weather Summary for the Past Weeks

 TemperatureHumidityPressure
High63 °F (Apr 29, 10:30 am)100% (Apr 16, 6:30 am)30.42 "Hg (Apr 16, 6:30 am)
Low19 °F (Apr 18, 4:30 am)19% (Apr 24, 2:30 pm)29.39 "Hg (Apr 22, 7:30 am)
Average39 °F74%29.91 "Hg
* Reported Apr 15 11:00 am — Apr 30 11:30 am, Barysaw, Weather by CustomWeather, © 2017

Note: Actual official high and low records may vary slightly from our data, if they occured in-between our weather recording intervals... More about our weather records

Advertising

Barysaw Weather History for the Previous 24 Hours

Scroll right to see more
 ConditionsComfort  
Time TempWeatherWind HumidityBarometerVisibility
11:30 am
Sun, Apr 30
43 °FPartly sunny.3 mph76%30.12 "HgN/A
10:30 am43 °FSprinkles. Partly sunny.3 mph81%30.12 "HgN/A
10:19 am43 °FSprinkles. Partly sunny.3 mph81%30.12 "HgN/A
10:00 am43 °FPartly sunny.3 mph81%30.12 "HgN/A
9:30 am43 °FSprinkles. Partly sunny.6 mph81%30.12 "HgN/A
9:00 am43 °FSprinkles. Partly sunny.6 mph81%30.12 "HgN/A
8:30 am43 °FPartly sunny.6 mph81%30.12 "HgN/A
8:00 am43 °FSunny.6 mph76%30.09 "Hg10 mi
7:30 am43 °FSunny.6 mph76%30.09 "Hg10 mi
6:30 am43 °FPartly cloudy.No wind81%30.07 "HgN/A
6:00 am41 °FPartly cloudy.3 mph87%30.07 "HgN/A
5:30 am41 °FSprinkles. Partly cloudy.6 mph87%30.07 "HgN/A
5:00 am43 °FClear.6 mph81%30.07 "Hg10 mi
4:30 am43 °FClear.3 mph81%30.07 "Hg10 mi
4:00 am43 °FClear.3 mph87%30.04 "Hg10 mi
3:30 am43 °FClear.1 mph87%30.04 "Hg10 mi
3:00 am43 °FClear.No wind87%30.04 "Hg10 mi
2:30 am43 °FClear.1 mph87%30.04 "Hg10 mi
2:00 am43 °FClear.3 mph87%30.04 "Hg10 mi
1:30 am43 °FClear.3 mph87%30.04 "Hg10 mi
1:00 am43 °FPassing clouds.3 mph87%30.04 "HgN/A
12:30 am43 °FPassing clouds.3 mph87%30.01 "HgN/A
12:00 am43 °FLight rain. Clear.1 mph87%30.04 "HgN/A
11:30 pm
Sat, Apr 29
45 °FClear.1 mph81%30.04 "Hg10 mi
10:30 pm45 °FPartly cloudy.3 mph76%30.04 "HgN/A
10:00 pm45 °FPassing clouds.1 mph76%30.01 "HgN/A
9:30 pm45 °FPartly sunny.3 mph76%30.01 "HgN/A
9:00 pm45 °FPartly sunny.6 mph76%30.01 "HgN/A
8:30 pm46 °FPartly sunny.8 mph66%29.98 "HgN/A
8:00 pm46 °FPartly sunny.8 mph71%29.98 "HgN/A
7:30 pm46 °FPartly sunny.10 mph71%29.98 "HgN/A
7:00 pm46 °FPartly sunny.10 mph76%29.98 "HgN/A
6:30 pm48 °FPartly sunny.13 mph82%29.95 "HgN/A
6:00 pm48 °FPartly sunny.10 mph82%29.95 "HgN/A
5:30 pm50 °FPartly sunny.10 mph82%29.92 "HgN/A
5:10 pm52 °FPartly sunny.17 mph77%29.92 "HgN/A
4:30 pm55 °FPartly sunny.17 mph72%29.89 "HgN/A
3:30 pm55 °FPartly sunny.15 mph77%29.86 "HgN/A
3:00 pm57 °FPartly sunny.17 mph72%29.86 "HgN/A
2:30 pm55 °FPartly sunny.10 mph82%29.86 "HgN/A
2:00 pm55 °FPartly sunny.10 mph88%29.83 "HgN/A
1:30 pm54 °FMostly cloudy.10 mph94%29.83 "HgN/A
1:04 pm54 °FMostly cloudy.13 mph88%29.80 "HgN/A
12:38 pm55 °FPartly sunny.17 mph88%29.80 "HgN/A
12:00 pm57 °FPartly sunny.8 mph88%29.77 "HgN/A
Weather by CustomWeather, © 2017

See weather overviewHow to use our weather pages